Location: *
(46.3500°N, 10.9000°E)
Time: 18:52:14
(UTC+00:00)

Vanguard 1 Rocket - All Passes

Search period start: 19 April 2021 00:00
Search period end: 29 April 2021 00:00
Orbit: 653 x 4223 km, 34.3° (Epoch: 19 April)

Date Brightness Start Highest point End Pass type
(mag) Time Alt. Az. Time Alt. Az. Time Alt. Az.
19 Apr - 13:51:55 10° SW 13:55:11 18° S 13:58:14 10° SE daylight
19 Apr - 16:16:15 10° SW 16:19:10 17° S 16:22:31 10° SSE daylight
20 Apr - 12:41:11 10° SSW 12:44:34 16° S 12:47:27 10° SE daylight
20 Apr - 15:05:28 10° SW 15:08:35 18° S 15:11:49 10° SE daylight
20 Apr - 17:31:54 10° SSW 17:32:47 10° SSW 17:33:41 10° S daylight
21 Apr - 11:30:30 10° SSW 11:33:49 14° SSE 11:36:32 10° SE daylight
21 Apr - 13:54:31 10° SW 13:58:03 20° S 14:01:17 10° SE daylight
21 Apr - 16:19:49 10° SW 16:22:02 13° SSW 16:24:27 10° SSE daylight
22 Apr - 10:20:26 10° S 10:22:48 11° SSE 10:24:53 10° SE daylight
22 Apr - 12:43:19 10° SW 12:47:28 20° S 12:50:50 10° SE daylight
22 Apr - 15:08:33 10° SW 15:11:27 17° S 15:14:23 10° SSE daylight
23 Apr - 11:31:55 10° SSW 11:36:43 19° S 11:40:21 10° SE daylight
23 Apr - 13:57:15 10° SW 14:00:56 20° S 14:04:12 10° SE daylight
24 Apr - 10:20:34 10° SSW 10:25:44 17° SSE 10:29:37 10° SE daylight
24 Apr - 12:45:40 10° SW 12:50:23 22° S 12:54:01 10° SE daylight
24 Apr - 15:11:51 10° SW 15:14:17 14° SSW 15:16:42 10° SSE daylight
25 Apr - 09:09:45 10° S 09:14:28 14° SSE 09:18:11 10° SE daylight
25 Apr - 11:33:47 10° SW 11:39:39 23° S 11:43:47 10° ESE daylight
25 Apr - 14:00:06 10° WSW 14:03:47 19° SSW 14:06:59 10° SE daylight
26 Apr - 08:01:40 10° SSE 08:02:52 10° SSE 08:03:59 10° SSE daylight
26 Apr - 10:21:44 10° SW 10:28:40 22° S 10:33:24 10° ESE daylight
26 Apr - 12:48:10 10° WSW 12:53:15 24° S 12:57:04 10° SE daylight
26 Apr - 15:15:37 10° SW 15:17:03 11° SSW 15:18:27 10° S daylight
27 Apr - 09:09:49 10° SSW 09:17:23 19° SSE 09:22:36 10° ESE daylight
27 Apr - 11:35:54 10° SW 11:42:33 27° S 11:47:01 10° ESE daylight
27 Apr - 14:03:03 10° WSW 14:06:36 18° SSW 14:09:38 10° SSE daylight
28 Apr - 07:58:36 10° S 08:05:44 16° SSE 08:11:02 10° SE daylight
28 Apr - 10:23:20 10° SW 10:31:35 27° S 10:36:49 10° ESE daylight
28 Apr - 12:50:46 10° WSW 12:56:06 24° SSW 13:00:00 10° SE daylight
